Time,TemperatureF,DewpointF,PressureIn,WindDirection,WindDirectionDegrees,WindSpeedMPH,WindSpeedGustMPH,Humidity,HourlyPrecipIn,Conditions,Clouds,dailyrainin,SolarRadiationWatts/m^2,SoftwareType,DateUTC
2013-02-18 00:06:00,43.2,40.0,30.07,North,360,2.0,5.0,89,0.00,,,0.01,0,weatherlink.com 1.10,2013-02-18 08:06:00,
2013-02-18 00:21:00,42.5,40.0,30.07,North,360,3.0,4.0,89,0.00,,,0.01,0,weatherlink.com 1.10,2013-02-18 08:21:00,
2013-02-18 00:36:00,42.5,40.0,30.07,North,360,2.0,5.0,89,0.00,,,0.01,0,weatherlink.com 1.10,2013-02-18 08:36:00,
2013-02-18 00:51:00,42.5,40.0,30.07,North,360,2.0,5.0,89,0.00,,,0.00,0,weatherlink.com 1.10,2013-02-18 08:51:00,
2013-02-18 01:06:00,42.2,39.0,30.07,North,360,3.0,4.0,89,0.00,,,0.00,0,weatherlink.com 1.10,2013-02-18 09:06:00,
2013-02-18 01:21:00,41.8,39.0,30.07,North,360,2.0,6.0,90,0.00,,,0.00,0,weatherlink.com 1.10,2013-02-18 09:21:00,
2013-02-18 01:36:00,42.3,40.0,30.07,North,360,4.0,6.0,90,0.00,,,0.00,0,weatherlink.com 1.10,2013-02-18 09:36:00,
2013-02-18 01:51:00,41.9,39.0,30.06,North,360,2.0,5.0,89,0.00,,,0.00,0,weatherlink.com 1.10,2013-02-18 09:51:00,
2013-02-18 02:06:00,42.4,39.0,30.06,North,360,2.0,6.0,89,0.00,,,0.00,0,weatherlink.com 1.10,2013-02-18 10:06:00,
2013-02-18 02:21:00,42.6,40.0,30.06,North,360,3.0,5.0,89,0.00,,,0.00,0,weatherlink.com 1.10,2013-02-18 10:21:00,
2013-02-18 02:36:00,42.7,40.0,30.06,North,360,4.0,6.0,89,0.00,,,0.00,0,weatherlink.com 1.10,2013-02-18 10:36:00,
2013-02-18 02:51:00,42.5,40.0,30.05,North,9,2.0,5.0,89,0.00,,,0.00,0,weatherlink.com 1.10,2013-02-18 10:51:00,
2013-02-18 03:06:00,42.9,40.0,30.05,NNE,30,6.0,11.0,88,0.00,,,0.00,0,weatherlink.com 1.10,2013-02-18 11:06:00,
2013-02-18 03:21:00,43.0,40.0,30.05,NNE,30,5.0,9.0,88,0.00,,,0.00,0,weatherlink.com 1.10,2013-02-18 11:21:00,
2013-02-18 03:36:00,42.7,39.0,30.05,NNE,25,3.0,6.0,88,0.00,,,0.00,0,weatherlink.com 1.10,2013-02-18 11:36:00,
2013-02-18 03:51:00,42.4,39.0,30.05,NNE,22,2.0,6.0,88,0.00,,,0.00,0,weatherlink.com 1.10,2013-02-18 11:51:00,
2013-02-18 04:06:00,42.4,39.0,30.05,North,355,3.0,8.0,88,0.00,,,0.00,0,weatherlink.com 1.10,2013-02-18 12:06:00,
2013-02-18 04:21:00,42.5,40.0,30.05,NNE,22,4.0,9.0,89,0.00,,,0.00,0,weatherlink.com 1.10,2013-02-18 12:21:00,
2013-02-18 04:36:00,42.8,40.0,30.05,NNE,24,4.0,10.0,88,0.00,,,0.00,0,weatherlink.com 1.10,2013-02-18 12:36:00,
2013-02-18 04:51:00,41.8,39.0,30.05,NW,321,2.0,5.0,88,0.00,,,0.00,0,weatherlink.com 1.10,2013-02-18 12:51:00,
2013-02-18 05:06:00,40.7,38.0,30.04,NNW,346,2.0,5.0,89,0.00,,,0.00,0,weatherlink.com 1.10,2013-02-18 13:06:00,
2013-02-18 05:21:00,39.5,37.0,30.04,North,9,5.0,6.0,89,0.00,,,0.00,0,weatherlink.com 1.10,2013-02-18 13:21:00,
2013-02-18 05:36:00,38.7,36.0,30.04,NNE,16,3.0,7.0,90,0.00,,,0.00,0,weatherlink.com 1.10,2013-02-18 13:36:00,
2013-02-18 05:51:00,37.9,35.0,30.04,NNE,16,1.0,3.0,90,0.00,,,0.00,0,weatherlink.com 1.10,2013-02-18 13:51:00,
2013-02-18 06:07:00,37.3,35.0,30.04,NNE,16,1.0,4.0,91,0.00,,,0.00,0,weatherlink.com 1.10,2013-02-18 14:07:00,
2013-02-18 06:22:00,37.6,35.0,30.05,NNE,16,1.0,2.0,91,0.00,,,0.00,0,weatherlink.com 1.10,2013-02-18 14:22:00,
2013-02-18 06:37:00,37.8,36.0,30.05,NNE,16,1.0,4.0,92,0.00,,,0.00,0,weatherlink.com 1.10,2013-02-18 14:37:00,
2013-02-18 06:52:00,37.3,35.0,30.05,NNE,16,0.0,2.0,92,0.00,,,0.00,0,weatherlink.com 1.10,2013-02-18 14:52:00,
2013-02-18 07:07:00,37.3,36.0,30.05,NNE,16,2.0,5.0,93,0.00,,,0.00,12,weatherlink.com 1.10,2013-02-18 15:07:00,
2013-02-18 07:22:00,38.5,37.0,30.06,NNE,24,4.0,7.0,93,0.00,,,0.00,30,weatherlink.com 1.10,2013-02-18 15:22:00,
2013-02-18 07:37:00,39.1,37.0,30.07,NNE,24,4.0,5.0,92,0.00,,,0.00,46,weatherlink.com 1.10,2013-02-18 15:37:00,
2013-02-18 07:52:00,39.6,38.0,30.07,NNE,24,2.0,4.0,93,0.00,,,0.00,63,weatherlink.com 1.10,2013-02-18 15:52:00,
2013-02-18 08:07:00,40.9,39.0,30.07,NNE,24,3.0,4.0,93,0.00,,,0.00,141,weatherlink.com 1.10,2013-02-18 16:07:00,
2013-02-18 08:37:00,44.1,41.0,30.08,North,5,5.0,13.0,88,0.00,,,0.00,169,weatherlink.com 1.10,2013-02-18 16:37:00,
2013-02-18 08:52:00,45.1,41.0,30.08,North,360,3.0,12.0,85,0.00,,,0.00,199,weatherlink.com 1.10,2013-02-18 16:52:00,
2013-02-18 09:07:00,46.3,42.0,30.07,NNE,18,1.0,8.0,84,0.00,,,0.00,378,weatherlink.com 1.10,2013-02-18 17:07:00,
2013-02-18 09:22:00,47.6,42.0,30.07,North,5,0.0,10.0,82,0.00,,,0.00,450,weatherlink.com 1.10,2013-02-18 17:22:00,
2013-02-18 09:37:00,47.8,41.0,30.07,NNE,19,8.0,9.0,78,0.00,,,0.00,214,weatherlink.com 1.10,2013-02-18 17:37:00,
2013-02-18 09:52:00,48.4,42.0,30.07,NNE,17,2.0,10.0,77,0.00,,,0.00,526,weatherlink.com 1.10,2013-02-18 17:52:00,
2013-02-18 10:07:00,49.4,42.0,30.08,NNE,26,2.0,11.0,75,0.00,,,0.00,589,weatherlink.com 1.10,2013-02-18 18:07:00,
2013-02-18 10:22:00,50.0,42.0,30.08,North,355,7.0,12.0,73,0.00,,,0.00,619,weatherlink.com 1.10,2013-02-18 18:22:00,
2013-02-18 10:38:00,50.9,41.0,30.08,NW,306,9.0,16.0,70,0.00,,,0.00,608,weatherlink.com 1.10,2013-02-18 18:38:00,
2013-02-18 10:52:00,51.5,41.0,30.08,North,350,10.0,14.0,67,0.00,,,0.00,633,weatherlink.com 1.10,2013-02-18 18:52:00,
2013-02-18 11:07:00,52.4,41.0,30.07,NNW,327,11.0,18.0,65,0.00,,,0.00,664,weatherlink.com 1.10,2013-02-18 19:07:00,
2013-02-18 11:22:00,52.8,40.0,30.06,WNW,286,9.0,13.0,63,0.00,,,0.00,679,weatherlink.com 1.10,2013-02-18 19:22:00,
2013-02-18 11:38:00,53.0,41.0,30.06,NW,308,12.0,15.0,64,0.00,,,0.00,708,weatherlink.com 1.10,2013-02-18 19:38:00,
2013-02-18 11:53:00,52.2,42.0,30.05,NW,312,4.0,17.0,68,0.00,,,0.00,708,weatherlink.com 1.10,2013-02-18 19:53:00,
2013-02-18 12:08:00,51.9,42.0,30.04,NW,306,17.0,21.0,69,0.00,,,0.00,708,weatherlink.com 1.10,2013-02-18 20:08:00,
2013-02-18 12:23:00,52.1,42.0,30.04,NNE,17,7.0,15.0,69,0.00,,,0.00,726,weatherlink.com 1.10,2013-02-18 20:23:00,
2013-02-18 12:38:00,52.3,42.0,30.03,WNW,302,9.0,18.0,69,0.00,,,0.00,768,weatherlink.com 1.10,2013-02-18 20:38:00,
2013-02-18 12:53:00,52.7,42.0,30.02,NW,325,9.0,21.0,68,0.00,,,0.00,798,weatherlink.com 1.10,2013-02-18 20:53:00,
2013-02-18 13:08:00,52.2,42.0,30.02,NW,322,10.0,19.0,68,0.00,,,0.00,513,weatherlink.com 1.10,2013-02-18 21:08:00,
2013-02-18 13:23:00,51.0,43.0,30.01,NNW,330,16.0,19.0,73,0.00,,,0.00,362,weatherlink.com 1.10,2013-02-18 21:23:00,
2013-02-18 13:38:00,51.2,44.0,30.01,NNW,334,8.0,16.0,75,0.00,,,0.00,401,weatherlink.com 1.10,2013-02-18 21:38:00,
2013-02-18 13:53:00,51.5,44.0,30.01,NW,305,10.0,19.0,75,0.00,,,0.00,376,weatherlink.com 1.10,2013-02-18 21:53:00,
2013-02-18 14:08:00,-999.0,-99.9,30.01,WNW,293,9.0,21.0,76,0.00,,,0.00,,weatherlink.com 1.10,2013-02-18 22:08:00,
2013-02-18 14:23:00,-999.0,-99.9,30.02,WNW,294,9.0,22.0,-999,0.00,,,0.00,,weatherlink.com 1.10,2013-02-18 22:23:00,
2013-02-18 14:38:00,-999.0,-99.9,30.02,West,273,10.0,21.0,-999,0.00,,,0.00,,weatherlink.com 1.10,2013-02-18 22:38:00,
2013-02-18 14:53:00,-999.0,-99.9,30.02,West,263,11.0,18.0,-999,0.00,,,0.00,,weatherlink.com 1.10,2013-02-18 22:53:00,
2013-02-18 15:08:00,-999.0,-99.9,30.02,WNW,284,7.0,17.0,-999,0.00,,,0.00,,weatherlink.com 1.10,2013-02-18 23:08:00,
2013-02-18 15:23:00,-999.0,-99.9,30.02,West,271,8.0,16.0,-999,0.00,,,0.00,,weatherlink.com 1.10,2013-02-18 23:23:00,
2013-02-18 15:38:00,48.8,43.0,30.03,NW,304,6.0,16.0,79,0.00,,,0.00,118,weatherlink.com 1.10,2013-02-18 23:38:00,
2013-02-18 15:53:00,48.6,42.0,30.03,NNW,333,11.0,15.0,78,0.00,,,0.00,72,weatherlink.com 1.10,2013-02-18 23:53:00,
2013-02-18 16:08:00,48.2,42.0,30.03,NW,320,9.0,17.0,78,0.00,,,0.00,65,weatherlink.com 1.10,2013-02-19 00:08:00,
2013-02-18 16:23:00,47.9,42.0,30.03,NW,318,8.0,15.0,79,0.00,,,0.00,60,weatherlink.com 1.10,2013-02-19 00:23:00,
2013-02-18 16:38:00,47.8,42.0,30.03,NW,321,5.0,15.0,80,0.00,,,0.00,32,weatherlink.com 1.10,2013-02-19 00:38:00,
2013-02-18 16:53:00,47.8,42.0,30.02,NNW,329,6.0,12.0,80,0.00,,,0.00,25,weatherlink.com 1.10,2013-02-19 00:53:00,
2013-02-18 17:08:00,47.6,42.0,30.02,NW,313,1.0,12.0,80,0.00,,,0.00,30,weatherlink.com 1.10,2013-02-19 01:08:00,
2013-02-18 17:23:00,47.6,42.0,30.02,North,355,9.0,15.0,80,0.00,,,0.00,67,weatherlink.com 1.10,2013-02-19 01:23:00,
2013-02-18 17:38:00,47.8,42.0,30.02,North,360,4.0,11.0,80,0.00,,,0.00,39,weatherlink.com 1.10,2013-02-19 01:38:00,
2013-02-18 17:53:00,47.6,42.0,30.01,North,355,6.0,10.0,80,0.00,,,0.00,18,weatherlink.com 1.10,2013-02-19 01:53:00,
2013-02-18 18:08:00,47.4,42.0,30.01,NW,312,6.0,12.0,80,0.00,,,0.00,0,weatherlink.com 1.10,2013-02-19 02:08:00,
2013-02-18 18:23:00,47.1,41.0,30.01,North,355,2.0,12.0,80,0.00,,,0.00,0,weatherlink.com 1.10,2013-02-19 02:23:00,
2013-02-18 18:38:00,46.9,41.0,30.01,NNW,340,3.0,12.0,80,0.00,,,0.00,0,weatherlink.com 1.10,2013-02-19 02:38:00,
2013-02-18 18:53:00,46.3,40.0,30.01,NNW,341,2.0,8.0,80,0.00,,,0.00,0,weatherlink.com 1.10,2013-02-19 02:53:00,
2013-02-18 19:09:00,46.4,41.0,30.02,NNW,348,2.0,7.0,80,0.00,,,0.00,0,weatherlink.com 1.10,2013-02-19 03:09:00,
2013-02-18 19:23:00,46.4,41.0,30.02,NNE,13,5.0,9.0,81,0.00,,,0.00,0,weatherlink.com 1.10,2013-02-19 03:23:00,
2013-02-18 19:38:00,46.3,41.0,30.02,North,350,2.0,8.0,81,0.00,,,0.00,0,weatherlink.com 1.10,2013-02-19 03:38:00,
2013-02-18 19:53:00,45.8,40.0,30.02,NW,321,3.0,8.0,81,0.00,,,0.00,0,weatherlink.com 1.10,2013-02-19 03:53:00,
2013-02-18 20:08:00,45.1,40.0,30.02,NW,319,2.0,7.0,81,0.00,,,0.00,0,weatherlink.com 1.10,2013-02-19 04:08:00,
2013-02-18 20:23:00,44.5,40.0,30.03,NNW,333,3.0,6.0,83,0.00,,,0.00,0,weatherlink.com 1.10,2013-02-19 04:23:00,
2013-02-18 20:38:00,44.9,40.0,30.02,North,355,1.0,7.0,83,0.00,,,0.00,0,weatherlink.com 1.10,2013-02-19 04:38:00,
2013-02-18 20:53:00,45.4,40.0,30.02,North,355,4.0,6.0,82,0.00,,,0.00,0,weatherlink.com 1.10,2013-02-19 04:53:00,
2013-02-18 21:08:00,45.6,40.0,30.02,North,355,4.0,7.0,82,0.00,,,0.00,0,weatherlink.com 1.10,2013-02-19 05:08:00,
2013-02-18 21:23:00,45.5,40.0,30.03,North,355,1.0,8.0,82,0.00,,,0.00,0,weatherlink.com 1.10,2013-02-19 05:23:00,
2013-02-18 21:38:00,44.9,40.0,30.03,North,360,0.0,6.0,82,0.00,,,0.00,0,weatherlink.com 1.10,2013-02-19 05:38:00,
2013-02-18 21:54:00,43.6,39.0,30.03,North,360,0.0,2.0,83,0.00,,,0.00,0,weatherlink.com 1.10,2013-02-19 05:54:00,
2013-02-18 22:09:00,42.5,38.0,30.03,North,360,1.0,3.0,85,0.00,,,0.00,0,weatherlink.com 1.10,2013-02-19 06:09:00,
2013-02-18 22:24:00,42.3,38.0,30.03,North,360,2.0,3.0,86,0.00,,,0.00,0,weatherlink.com 1.10,2013-02-19 06:24:00,
2013-02-18 22:39:00,42.1,38.0,30.03,North,360,1.0,3.0,86,0.00,,,0.00,0,weatherlink.com 1.10,2013-02-19 06:39:00,
2013-02-18 22:54:00,41.7,38.0,30.03,North,360,0.0,2.0,86,0.00,,,0.00,0,weatherlink.com 1.10,2013-02-19 06:54:00,
2013-02-18 23:09:00,42.3,39.0,30.03,North,360,0.0,3.0,88,0.00,,,0.00,0,weatherlink.com 1.10,2013-02-19 07:09:00,
2013-02-18 23:24:00,42.3,39.0,30.03,North,360,1.0,3.0,87,0.00,,,0.00,0,weatherlink.com 1.10,2013-02-19 07:24:00,
2013-02-18 23:39:00,42.2,39.0,30.03,North,360,4.0,5.0,87,0.00,,,0.00,0,weatherlink.com 1.10,2013-02-19 07:39:00,
2013-02-18 23:54:00,42.3,39.0,30.02,North,360,4.0,5.0,87,0.00,,,0.00,0,weatherlink.com 1.10,2013-02-19 07:54:00,